SCP
0 0 0 0 0 0 0 0 0 0 0 0 0 0 0 0 0 0 0 0 0 0 0 0 0 0 0 0 0 0 0 0 0 0 0 0 0 0 0 0 0 0 0
0 0 0 0 0 0 0 0 0 0 0 0 0 0 0 0 0 0 0 0 0 0 0 0 0 0 0 0 0 0 0 0 0 0 0 0 0 0 0 0 0 0 0
0 0 0 0 0 0 0 0 0 0 0 0 0 0 0 0 0 0 0 0 0 0 0 0 0 0 0 0 0 0 0 0 0 0 0 0 0 0 0 0 0 0 0
0 0 0 0 0 0 0 0 0 0 0 0 0 0 0 0 0 0 0 0 0 0 0 0 0 0 0 0 0 0 0 0 0 0 0 0 0 0 0 0 0 0 0
0 0 0 0 0 0 0 0 0 0 0 0 0 0 0 0 0 0 0 0 0 0 0 0 0 0 0 0 0 0 0 0 0 0 0 0 0 0 0 0 0 0 0
0 0 0 0 0 0 0 0 0 0 0 0 0 0 0 0 0 0 0 0 0 0 0 0 0 0 0 0 0 0 0 0 0 0 0 0 0 0 0 0 0 0 0
0 0 0 0 0 0 0 0 0 0 0 0 0 0 0 0 0 0 0 0 0 0 0 0 0 0 0 0 0 0 0 0 0 0 0 0 0 0 0 0 0 0 0
0 0 0 0 0 0 0 0 0 0 0 0 0 0 0 0 0 0 0 0 0 0 0 0 0 0 0 0 0 0 0 0 0 0 0 0 0 0 0 0 0 0 0
0 0 0 0 0 0 0 0 0 0 0 0 0 0 0 0 0 0 0 0 0 0 0 0 0 0 0 0 0 0 0 0 0 0 0 0 0 0 0 0 0 0 0
0 0 0 0 0 0 0 0 0 0 0 0 0 0 0 0 0 0 0 0 0 0 0 0 0 0 0 0 0 0 0 0 0 0 0 0 0 0 0 0 0 0 0
0 0 0 0 0 0 0 0 0 0 0 0 0 0 0 0 0 0 0 0 0 0 0 0 0 0 0 0 0 0 0 0 0 0 0 0 0 0 0 0 0 0 0
0 0 0 0 0 0 0 0 0 0 0 0 0 0 0 0 0 0 0 0 0 0 0 0 0 0 0 0 0 0 0 0 0 0 0 0 0 0 0 0 0 0 0
0 0 0 0 0 0 0 0 0 0 0 0 0 0 0 0 0 0 0 0 0 0 0 0 0 0 0 0 0 0 0 0 0 0 0 0 0 0 0 0 0 0 0
0 0 0 0 0 0 0 0 0 0 0 0 0 0 0 0 0 0 0 0 0 0 0 0 0 0 0 0 0 0 0 0 0 0 0 0 0 0 0 0 0 0 0
0 0 0 0 0 0 0 0 0 0 0 0 0 0 0 0 0 0 0 0 0 0 0 0 0 0 0 0 0 0 0 0 0 0 0 0 0 0 0 0 0 0 0
0 0 0 0 0 0 0 0 0 0 0 0 0 0 0 0 0 0 0 0 0 0 0 0 0 0 0 0 0 0 0 0 0 0 0 0 0 0 0 0 0 0 0
0 0 0 0 0 0 0 0 0 0 0 0 0 0 0 0 0 0 0 0 0 0 0 0 0 0 0 0 0 0 0 0 0 0 0 0 0 0 0 0 0 0 0
0 0 0 0 0 0 0 0 0 0 0 0 0 0 0 0 0 0 0 0 0 0 0 0 0 0 0 0 0 0 0 0 0 0 0 0 0 0 0 0 0 0 0
0 0 0 0 0 0 0 0 0 0 0 0 0 0 0 0 0 0 0 0 0 0 0 0 0 0 0 0 0 0 0 0 0 0 0 0 0 0 0 0 0 0 0
0 0 0 0 0 0 0 0 0 0 0 0 0 0 0 0 0 0 0 0 0 0 0 0 0 0 0 0 0 0 0 0 0 0 0 0 0 0 0 0 0 0 0
0 0 0 0 0 0 0 0 0 0 0 0 0 0 0 0 0 0 0 0 0 0 0 0 0 0 0 0 0 0 0 0 0 0 0 0 0 0 0 0 0 0 0
0 0 0 0 0 0 0 0 0 0 0 0 0 0 0 0 0 0 0 0 0 0 0 0 0 0 0 0 0 0 0 0 0 0 0 0 0 0 0 0 0 0 0
0 0 0 0 0 0 0 0 0 0 0 0 0 0 0 0 0 0 0 0 0 0 0 0 0 0 0 0 0 0 0 0 0 0 0 0 0 0 0 0 0 0 0
0 0 0 0 0 0 0 0 0 0 0 0 0 0 0 0 0 0 0 0 0 0 0 0 0 0 0 0 0 0 0 0 0 0 0 0 0 0 0 0 0 0 0
0 0 0 0 0 0 0 0 0 0 0 0 0 0 0 0 0 0 0 0 0 0 0 0 0 0 0 0 0 0 0 0 0 0 0 0 0 0 0 0 0 0 0
0 0 0 0 0 0 0 0 0 0 0 0 0 0 0 0 0 0 0 0 0 0 0 0 0 0 0 0 0 0 0 0 0 0 0 0 0 0 0 0 0 0 0
Wind_Speed_500mb
13 9 5 2 3 7 11 14 17 20 20 19 19 19 21 22 23 25 28 31 36 41 46 48 49 50 48 45 40 35 34 35 49 51 49 48 50 50 49 45 51 51 49
11 8 4 1 5 9 13 18 21 22 22 21 22 22 23 23 24 27 30 35 40 44 47 49 49 47 44 41 38 37 35 39 44 56 52 55 49 48 53 48 50 50 52
12 7 5 5 8 11 15 20 22 24 23 23 23 24 25 26 28 31 35 38 42 46 50 50 48 46 42 40 41 37 37 40 43 48 62 51 48 53 51 50 54 55 51
11 10 10 11 12 14 18 22 26 27 27 27 27 28 28 30 33 36 37 40 45 50 53 50 47 44 43 42 38 36 40 44 44 46 55 54 53 50 50 63 70 55 60
13 12 13 15 16 18 22 26 29 31 31 30 31 31 32 35 38 38 40 46 50 52 52 49 49 48 48 43 36 37 43 43 45 48 53 57 55 57 58 62 71 77 70
12 14 18 20 22 23 25 28 30 31 31 31 32 35 37 38 40 41 44 49 53 53 50 50 48 48 42 45 37 42 40 46 45 47 54 57 55 56 58 65 75 74 91
15 20 24 24 25 26 27 30 32 33 33 33 35 37 39 40 41 43 47 50 53 51 51 49 47 44 43 41 40 41 43 47 41 46 54 53 57 53 61 74 66 68 71
21 24 25 28 29 29 31 32 34 35 34 34 37 38 39 42 43 45 47 49 50 50 50 47 45 41 36 40 42 44 44 43 43 44 52 53 50 59 63 63 67 70 74
25 27 29 31 31 31 33 36 37 37 38 37 38 39 42 43 44 45 47 48 49 50 48 47 44 40 38 40 42 46 50 48 45 51 50 50 60 64 61 65 57 55 72
28 28 30 30 30 33 36 38 38 38 39 40 42 44 45 44 45 45 45 46 49 50 50 45 39 38 39 38 41 48 54 54 58 57 68 68 63 60 54 48 47 48 51
32 32 33 31 32 34 37 38 39 41 44 46 46 47 46 46 45 44 44 45 47 49 46 42 39 40 37 39 43 52 56 60 63 68 70 66 62 56 50 48 49 49 51
33 33 31 30 33 37 38 39 43 45 47 47 47 48 48 47 47 45 44 45 47 45 43 40 40 40 41 46 56 61 62 63 65 67 66 63 58 56 55 57 57 55 54
36 32 30 33 36 37 40 43 46 47 49 49 48 49 49 49 47 44 45 46 47 45 42 42 46 51 54 59 59 56 59 60 63 64 63 60 57 61 62 60 58 58 58
35 31 34 37 37 41 45 47 49 51 50 50 50 48 48 49 47 46 46 47 47 45 45 53 54 57 61 60 60 57 58 60 64 66 65 65 64 62 59 57 61 59 61
35 35 38 40 43 47 50 52 54 53 51 51 48 46 47 46 45 45 45 43 39 41 54 58 59 61 62 60 59 57 57 58 61 62 63 65 64 62 62 60 62 61 58
39 39 42 46 50 54 56 57 57 55 52 49 46 45 45 45 44 44 45 46 41 51 54 56 59 60 62 63 65 66 63 60 59 61 61 61 61 62 63 64 58 54 55
43 45 49 54 57 58 59 59 58 55 54 50 44 43 44 46 45 45 46 49 52 52 52 54 56 58 62 65 67 66 65 62 61 60 61 61 62 63 62 59 57 54 54
48 53 57 60 60 60 60 58 56 55 52 47 41 42 43 43 42 44 48 51 48 48 50 52 55 58 63 66 66 64 62 61 61 61 61 59 58 58 58 57 57 58 59
54 58 59 61 61 59 58 56 54 51 47 43 41 40 40 42 42 42 47 47 49 48 50 53 55 60 63 63 61 61 62 63 62 61 58 56 55 56 57 58 60 58 60
51 52 54 57 57 55 53 50 47 44 41 39 38 37 38 38 38 43 44 44 46 49 52 56 59 62 60 58 61 62 63 61 60 58 56 56 56 57 59 59 57 59 55
50 52 54 53 50 47 46 43 40 38 37 36 35 36 36 35 39 41 41 42 46 51 56 61 62 59 56 58 60 62 62 60 57 56 56 57 58 58 54 55 56 54 52
51 52 49 44 42 42 39 36 36 35 34 34 33 32 34 37 39 39 39 42 46 51 58 63 59 56 58 59 60 60 60 56 53 55 58 58 56 55 56 56 55 52 55
50 45 41 38 37 36 35 34 33 32 31 30 30 31 34 35 36 37 39 43 48 53 55 54 57 57 57 58 57 57 57 56 56 57 57 55 54 52 52 53 55 58 63
42 38 35 34 33 32 31 31 32 31 29 29 30 33 33 33 34 36 41 46 51 51 49 52 54 56 56 53 52 53 55 55 56 54 53 54 51 46 52 59 61 64 66
37 34 34 32 30 29 30 30 29 29 29 29 30 31 31 32 34 38 43 48 49 46 47 50 52 53 52 52 52 52 52 50 49 49 50 49 44 50 57 62 62 63 65
35 33 32 30 29 28 28 28 27 28 28 29 29 29 30 32 36 40 44 46 43 45 47 49 49 51 51 51 50 47 43 41 43 44 45 44 54 60 65 65 61 67 74
Wind_Direction_500mb
176 177 171 144 343 356 346 342 338 338 335 330 323 324 325 327 330 333 335 338 338 337 336 333 328 323 321 318 317 314 309 306 301 308 309 313 317 316 316 318 320 322 324
186 192 203 267 330 334 332 335 336 330 324 316 313 313 314 315 319 322 327 332 333 331 328 324 320 320 321 316 316 314 310 307 306 309 313 318 317 317 318 315 320 322 323
198 211 237 270 299 311 322 328 328 325 315 308 304 300 302 307 312 318 322 325 324 323 323 323 321 320 317 313 313 309 307 308 310 310 313 318 315 317 317 317 320 322 320
214 233 251 273 292 309 318 325 325 319 310 304 298 297 298 300 306 309 313 318 322 322 322 320 317 314 309 307 307 302 306 309 309 310 313 313 315 318 315 321 321 321 318
229 247 268 280 293 305 314 318 315 310 304 298 294 292 295 299 301 306 314 320 318 318 318 315 313 310 309 308 304 301 305 305 305 306 309 310 314 320 320 317 316 319 319
251 272 279 284 289 294 299 304 304 302 298 293 291 295 298 297 301 308 315 314 312 316 317 313 311 312 309 305 303 301 303 302 297 302 305 308 311 311 310 314 317 316 317
265 269 272 278 280 285 295 302 304 301 298 297 295 294 293 297 302 309 308 307 314 316 314 312 311 310 311 308 310 310 307 295 295 299 301 305 308 307 310 311 310 308 305
270 274 279 278 282 288 295 298 299 297 299 298 294 292 296 298 300 300 304 310 312 314 311 309 307 309 307 310 315 307 299 297 295 297 299 301 297 300 303 301 304 301 301
277 277 277 277 278 283 293 300 300 299 294 291 294 297 294 293 295 301 305 308 311 312 310 309 305 305 304 313 307 304 302 300 301 302 294 297 303 306 305 303 303 304 308
271 273 278 283 286 287 291 295 294 293 296 300 298 292 289 292 296 302 306 309 310 311 310 308 304 302 304 306 304 304 302 305 310 305 305 310 310 310 308 303 303 302 305
278 279 277 272 274 283 292 295 297 302 302 297 291 289 289 292 298 302 305 308 308 308 306 303 303 301 304 300 302 297 304 309 305 309 310 312 313 313 312 308 305 302 299
274 273 270 271 282 288 294 302 302 299 296 292 289 289 291 293 296 301 304 304 305 304 300 299 302 301 297 304 309 311 309 310 310 310 311 313 312 311 311 310 307 305 302
270 271 268 273 281 290 298 298 297 296 292 290 289 290 292 293 296 301 304 305 307 304 300 299 296 303 309 309 310 311 312 313 313 313 312 311 309 309 312 312 310 309 307
269 264 267 275 285 290 292 293 293 293 291 290 289 290 292 294 299 304 306 305 310 313 308 309 312 310 311 313 314 316 316 315 313 313 312 312 312 313 313 315 314 313 309
266 265 271 279 283 285 288 290 290 291 289 287 289 290 293 294 297 300 303 306 305 305 299 306 308 311 313 315 316 317 318 315 312 311 311 313 314 314 315 317 317 314 310
266 270 275 278 281 283 286 287 289 290 290 288 290 289 291 292 293 296 301 302 302 299 307 308 311 313 315 318 319 320 321 320 318 317 317 317 316 316 318 320 319 314 311
272 275 277 279 281 283 285 287 290 290 288 290 289 288 285 287 289 295 298 300 305 307 306 308 311 314 316 317 318 319 321 321 321 321 320 320 320 319 320 321 322 319 317
277 279 281 283 285 286 287 287 288 288 289 287 283 282 284 286 288 295 301 305 306 306 307 309 313 315 316 317 318 320 321 321 321 320 320 320 320 320 322 323 324 323 323
282 284 286 287 286 286 286 286 286 284 283 282 283 283 284 288 292 296 303 306 306 308 311 313 315 316 317 317 318 319 320 320 321 320 322 322 323 323 323 323 323 325 326
285 286 286 287 287 286 285 284 283 283 281 279 280 281 283 288 294 301 304 305 307 311 313 315 318 319 319 318 318 318 318 320 321 321 321 322 322 323 323 324 325 325 327
288 289 290 287 287 286 285 286 283 279 278 278 278 280 284 290 296 300 303 309 313 315 316 317 319 319 319 318 318 318 319 321 322 320 320 321 322 323 325 325 326 327 328
291 291 289 287 287 288 286 282 279 277 275 276 279 282 287 295 298 301 307 311 313 314 316 316 317 319 320 319 319 319 319 321 321 319 320 321 323 325 325 327 326 325 325
290 287 286 286 285 283 281 279 275 274 275 275 279 281 287 293 298 304 309 311 314 316 316 315 317 319 319 319 320 319 319 321 320 320 319 320 322 324 325 327 328 325 324
288 286 286 285 284 283 279 276 274 274 274 276 276 282 291 298 303 307 310 313 316 318 317 317 318 320 320 321 321 320 319 319 318 319 318 319 321 321 323 325 326 325 326
285 282 281 280 278 275 272 271 270 270 272 273 280 289 297 302 305 308 312 315 317 317 319 320 321 321 322 323 323 321 320 321 319 319 317 315 317 322 324 324 327 327 327
278 278 278 277 275 273 269 267 267 269 271 277 286 294 298 301 304 309 313 316 318 320 323 325 323 323 325 325 324 324 325 326 327 329 327 321 319 321 324 324 325 324 326
Wind_Speed_850mb
13 9 5 2 3 7 11 14 17 20 20 19 19 19 21 22 23 25 28 31 36 41 46 48 49 50 48 45 40 35 34 35 49 51 49 48 50 50 49 45 51 51 49
11 8 4 1 5 9 13 18 21 22 22 21 22 22 23 23 24 27 30 35 40 44 47 49 49 47 44 41 38 37 35 39 44 56 52 55 49 48 53 48 50 50 52
12 7 5 5 8 11 15 20 22 24 23 23 23 24 25 26 28 31 35 38 42 46 50 50 48 46 42 40 41 37 37 40 43 48 62 51 48 53 51 50 54 55 51
11 10 10 11 12 14 18 22 26 27 27 27 27 28 28 30 33 36 37 40 45 50 53 50 47 44 43 42 38 36 40 44 44 46 55 54 53 50 50 63 70 55 60
13 12 13 15 16 18 22 26 29 31 31 30 31 31 32 35 38 38 40 46 50 52 52 49 49 48 48 43 36 37 43 43 45 48 53 57 55 57 58 62 71 77 70
12 14 18 20 22 23 25 28 30 31 31 31 32 35 37 38 40 41 44 49 53 53 50 50 48 48 42 45 37 42 40 46 45 47 54 57 55 56 58 65 75 74 91
15 20 24 24 25 26 27 30 32 33 33 33 35 37 39 40 41 43 47 50 53 51 51 49 47 44 43 41 40 41 43 47 41 46 54 53 57 53 61 74 66 68 71
21 24 25 28 29 29 31 32 34 35 34 34 37 38 39 42 43 45 47 49 50 50 50 47 45 41 36 40 42 44 44 43 43 44 52 53 50 59 63 63 67 70 74
25 27 29 31 31 31 33 36 37 37 38 37 38 39 42 43 44 45 47 48 49 50 48 47 44 40 38 40 42 46 50 48 45 51 50 50 60 64 61 65 57 55 72
28 28 30 30 30 33 36 38 38 38 39 40 42 44 45 44 45 45 45 46 49 50 50 45 39 38 39 38 41 48 54 54 58 57 68 68 63 60 54 48 47 48 51
32 32 33 31 32 34 37 38 39 41 44 46 46 47 46 46 45 44 44 45 47 49 46 42 39 40 37 39 43 52 56 60 63 68 70 66 62 56 50 48 49 49 51
33 33 31 30 33 37 38 39 43 45 47 47 47 48 48 47 47 45 44 45 47 45 43 40 40 40 41 46 56 61 62 63 65 67 66 63 58 56 55 57 57 55 54
36 32 30 33 36 37 40 43 46 47 49 49 48 49 49 49 47 44 45 46 47 45 42 42 46 51 54 59 59 56 59 60 63 64 63 60 57 61 62 60 58 58 58
35 31 34 37 37 41 45 47 49 51 50 50 50 48 48 49 47 46 46 47 47 45 45 53 54 57 61 60 60 57 58 60 64 66 65 65 64 62 59 57 61 59 61
35 35 38 40 43 47 50 52 54 53 51 51 48 46 47 46 45 45 45 43 39 41 54 58 59 61 62 60 59 57 57 58 61 62 63 65 64 62 62 60 62 61 58
39 39 42 46 50 54 56 57 57 55 52 49 46 45 45 45 44 44 45 46 41 51 54 56 59 60 62 63 65 66 63 60 59 61 61 61 61 62 63 64 58 54 55
43 45 49 54 57 58 59 59 58 55 54 50 44 43 44 46 45 45 46 49 52 52 52 54 56 58 62 65 67 66 65 62 61 60 61 61 62 63 62 59 57 54 54
48 53 57 60 60 60 60 58 56 55 52 47 41 42 43 43 42 44 48 51 48 48 50 52 55 58 63 66 66 64 62 61 61 61 61 59 58 58 58 57 57 58 59
54 58 59 61 61 59 58 56 54 51 47 43 41 40 40 42 42 42 47 47 49 48 50 53 55 60 63 63 61 61 62 63 62 61 58 56 55 56 57 58 60 58 60
51 52 54 57 57 55 53 50 47 44 41 39 38 37 38 38 38 43 44 44 46 49 52 56 59 62 60 58 61 62 63 61 60 58 56 56 56 57 59 59 57 59 55
50 52 54 53 50 47 46 43 40 38 37 36 35 36 36 35 39 41 41 42 46 51 56 61 62 59 56 58 60 62 62 60 57 56 56 57 58 58 54 55 56 54 52
51 52 49 44 42 42 39 36 36 35 34 34 33 32 34 37 39 39 39 42 46 51 58 63 59 56 58 59 60 60 60 56 53 55 58 58 56 55 56 56 55 52 55
50 45 41 38 37 36 35 34 33 32 31 30 30 31 34 35 36 37 39 43 48 53 55 54 57 57 57 58 57 57 57 56 56 57 57 55 54 52 52 53 55 58 63
42 38 35 34 33 32 31 31 32 31 29 29 30 33 33 33 34 36 41 46 51 51 49 52 54 56 56 53 52 53 55 55 56 54 53 54 51 46 52 59 61 64 66
37 34 34 32 30 29 30 30 29 29 29 29 30 31 31 32 34 38 43 48 49 46 47 50 52 53 52 52 52 52 52 50 49 49 50 49 44 50 57 62 62 63 65
35 33 32 30 29 28 28 28 27 28 28 29 29 29 30 32 36 40 44 46 43 45 47 49 49 51 51 51 50 47 43 41 43 44 45 44 54 60 65 65 61 67 74
Wind_Direction_850mb
176 177 171 144 343 356 346 342 338 338 335 330 323 324 325 327 330 333 335 338 338 337 336 333 328 323 321 318 317 314 309 306 301 308 309 313 317 316 316 318 320 322 324
186 192 203 267 330 334 332 335 336 330 324 316 313 313 314 315 319 322 327 332 333 331 328 324 320 320 321 316 316 314 310 307 306 309 313 318 317 317 318 315 320 322 323
198 211 237 270 299 311 322 328 328 325 315 308 304 300 302 307 312 318 322 325 324 323 323 323 321 320 317 313 313 309 307 308 310 310 313 318 315 317 317 317 320 322 320
214 233 251 273 292 309 318 325 325 319 310 304 298 297 298 300 306 309 313 318 322 322 322 320 317 314 309 307 307 302 306 309 309 310 313 313 315 318 315 321 321 321 318
229 247 268 280 293 305 314 318 315 310 304 298 294 292 295 299 301 306 314 320 318 318 318 315 313 310 309 308 304 301 305 305 305 306 309 310 314 320 320 317 316 319 319
251 272 279 284 289 294 299 304 304 302 298 293 291 295 298 297 301 308 315 314 312 316 317 313 311 312 309 305 303 301 303 302 297 302 305 308 311 311 310 314 317 316 317
265 269 272 278 280 285 295 302 304 301 298 297 295 294 293 297 302 309 308 307 314 316 314 312 311 310 311 308 310 310 307 295 295 299 301 305 308 307 310 311 310 308 305
270 274 279 278 282 288 295 298 299 297 299 298 294 292 296 298 300 300 304 310 312 314 311 309 307 309 307 310 315 307 299 297 295 297 299 301 297 300 303 301 304 301 301
277 277 277 277 278 283 293 300 300 299 294 291 294 297 294 293 295 301 305 308 311 312 310 309 305 305 304 313 307 304 302 300 301 302 294 297 303 306 305 303 303 304 308
271 273 278 283 286 287 291 295 294 293 296 300 298 292 289 292 296 302 306 309 310 311 310 308 304 302 304 306 304 304 302 305 310 305 305 310 310 310 308 303 303 302 305
278 279 277 272 274 283 292 295 297 302 302 297 291 289 289 292 298 302 305 308 308 308 306 303 303 301 304 300 302 297 304 309 305 309 310 312 313 313 312 308 305 302 299
274 273 270 271 282 288 294 302 302 299 296 292 289 289 291 293 296 301 304 304 305 304 300 299 302 301 297 304 309 311 309 310 310 310 311 313 312 311 311 310 307 305 302
270 271 268 273 281 290 298 298 297 296 292 290 289 290 292 293 296 301 304 305 307 304 300 299 296 303 309 309 310 311 312 313 313 313 312 311 309 309 312 312 310 309 307
269 264 267 275 285 290 292 293 293 293 291 290 289 290 292 294 299 304 306 305 310 313 308 309 312 310 311 313 314 316 316 315 313 313 312 312 312 313 313 315 314 313 309
266 265 271 279 283 285 288 290 290 291 289 287 289 290 293 294 297 300 303 306 305 305 299 306 308 311 313 315 316 317 318 315 312 311 311 313 314 314 315 317 317 314 310
266 270 275 278 281 283 286 287 289 290 290 288 290 289 291 292 293 296 301 302 302 299 307 308 311 313 315 318 319 320 321 320 318 317 317 317 316 316 318 320 319 314 311
272 275 277 279 281 283 285 287 290 290 288 290 289 288 285 287 289 295 298 300 305 307 306 308 311 314 316 317 318 319 321 321 321 321 320 320 320 319 320 321 322 319 317
277 279 281 283 285 286 287 287 288 288 289 287 283 282 284 286 288 295 301 305 306 306 307 309 313 315 316 317 318 320 321 321 321 320 320 320 320 320 322 323 324 323 323
282 284 286 287 286 286 286 286 286 284 283 282 283 283 284 288 292 296 303 306 306 308 311 313 315 316 317 317 318 319 320 320 321 320 322 322 323 323 323 323 323 325 326
285 286 286 287 287 286 285 284 283 283 281 279 280 281 283 288 294 301 304 305 307 311 313 315 318 319 319 318 318 318 318 320 321 321 321 322 322 323 323 324 325 325 327
288 289 290 287 287 286 285 286 283 279 278 278 278 280 284 290 296 300 303 309 313 315 316 317 319 319 319 318 318 318 319 321 322 320 320 321 322 323 325 325 326 327 328
291 291 289 287 287 288 286 282 279 277 275 276 279 282 287 295 298 301 307 311 313 314 316 316 317 319 320 319 319 319 319 321 321 319 320 321 323 325 325 327 326 325 325
290 287 286 286 285 283 281 279 275 274 275 275 279 281 287 293 298 304 309 311 314 316 316 315 317 319 319 319 320 319 319 321 320 320 319 320 322 324 325 327 328 325 324
288 286 286 285 284 283 279 276 274 274 274 276 276 282 291 298 303 307 310 313 316 318 317 317 318 320 320 321 321 320 319 319 318 319 318 319 321 321 323 325 326 325 326
285 282 281 280 278 275 272 271 270 270 272 273 280 289 297 302 305 308 312 315 317 317 319 320 321 321 322 323 323 321 320 321 319 319 317 315 317 322 324 324 327 327 327
278 278 278 277 275 273 269 267 267 269 271 277 286 294 298 301 304 309 313 316 318 320 323 325 323 323 325 325 324 324 325 326 327 329 327 321 319 321 324 324 325 324 326